GEFSNGP_con_cape1000_222.txt.gz
Probability
0 0 0 0 0 0 0 0 0 3 6 19 23 29 39 39 42 32 42 45 55 61 61 65 68 68 71 71 81 81 77 77 74 74 74 81 81 84 84 84 77 74 77 74
0 0 0 0 0 0 0 0 0 0 6 19 26 35 42 39 39 35 39 42 52 61 65 65 65 65 65 65 71 84 77 74 71 74 71 74 74 74 71 74 74 74 77 68
0 0 0 0 0 0 0 0 0 6 19 26 26 39 42 35 35 35 39 42 48 61 61 61 61 68 65 68 71 71 77 74 71 68 68 68 61 61 68 68 68 68 68 71
0 0 0 0 0 0 3 10 6 19 29 32 39 39 35 35 35 39 39 32 32 45 58 61 55 58 65 58 58 58 65 55 52 55 55 58 61 65 61 65 68 65 61 58
0 0 0 0 0 0 3 16 19 26 32 32 35 32 26 32 35 32 32 29 39 29 45 61 58 58 55 52 58 52 48 48 42 48 48 48 55 52 58 58 58 58 55 52
0 0 0 3 3 3 10 16 16 23 32 35 29 26 26 35 35 29 35 35 39 39 45 55 58 58 52 42 42 48 45 45 42 42 45 42 45 45 52 55 52 45 45 48
0 0 0 3 3 0 0 13 16 29 35 35 45 39 39 29 29 35 35 39 39 39 45 48 48 52 52 45 45 45 45 45 45 48 45 39 45 52 52 48 45 45 45 48
0 3 3 10 10 16 29 23 23 26 39 32 32 29 26 29 35 32 35 35 35 39 42 42 45 45 45 42 48 45 45 45 45 48 39 29 39 42 42 42 45 35 32 35
6 6 10 13 23 23 26 26 26 29 29 32 23 16 19 32 32 29 35 32 32 39 39 35 39 39 35 35 45 39 39 32 39 35 42 39 35 35 35 35 23 32 26 26
6 6 6 16 13 13 16 19 23 29 26 26 19 23 23 32 35 32 29 29 32 35 35 39 35 35 35 35 39 42 39 29 32 26 29 23 32 26 23 16 23 23 23 23
6 6 6 13 13 16 16 16 16 19 23 26 23 19 19 32 35 32 29 32 35 39 35 35 35 39 35 35 35 26 23 19 16 13 13 29 16 16 16 13 16 13 16 19
6 6 10 13 10 13 13 16 23 23 23 26 23 19 16 19 19 19 26 32 29 35 32 35 32 32 35 32 23 26 23 19 10 10 10 13 10 6 3 3 0 0 3 3
3 3 10 10 6 10 16 13 13 13 13 19 19 19 19 23 19 23 26 23 23 23 23 26 26 26 23 19 26 16 16 13 10 10 10 10 13 13 6 0 0 0 0 0
3 6 10 3 6 6 6 6 3 0 3 6 6 6 19 19 19 23 23 19 19 19 23 23 23 23 26 16 16 19 19 6 6 6 10 10 10 10 10 3 0 0 0 0
3 6 6 6 6 3 0 3 3 3 3 6 10 10 13 13 13 13 16 13 19 19 19 19 16 19 23 10 13 19 6 10 10 10 10 6 6 6 6 6 3 3 3 0
3 3 3 3 6 3 3 6 3 3 6 10 10 10 10 10 10 10 10 19 16 13 13 16 19 19 19 13 10 13 13 6 6 6 6 6 6 6 3 3 0 3 3 0
3 6 3 6 6 6 6 6 3 6 10 6 10 10 6 10 10 10 10 10 10 13 16 16 16 16 13 13 13 10 6 3 3 3 6 6 3 3 0 3 3 0 0 0
6 6 6 3 3 3 3 0 3 6 6 6 10 10 6 10 10 10 10 16 13 10 10 10 13 13 10 6 10 10 3 3 3 3 3 3 0 3 6 6 0 0 0 0
3 3 0 0 0 0 0 0 3 6 10 10 10 10 10 10 10 10 10 13 13 13 13 13 3 6 10 10 6 16 3 0 0 0 0 0 3 3 3 0 3 3 0 0
0 0 3 3 0 0 0 0 10 10 10 10 6 10 10 10 10 10 16 16 13 10 13 10 10 13 10 6 0 3 0 0 0 0 0 0 3 3 3 0 0 0 0 0
0 0 6 6 6 6 6 6 6 10 6 6 6 10 10 10 10 13 16 10 19 13 13 0 10 10 3 3 0 0 0 0 0 0 0 0 3 0 0 0 0 0 0 0
0 6 6 6 6 6 6 10 6 3 6 6 3 6 10 13 10 13 13 13 13 6 3 6 6 0 0 0 0 0 0 0 0 3 0 3 0 0 0 0 0 0 0 0
0 0 0 3 0 0 3 3 3 3 3 6 6 6 6 13 6 10 6 6 3 0 0 6 0 0 0 0 0 3 0 0 0 3 3 0 0 0 0 0 0 0 0 0
3 0 0 0 0 3 3 3 3 3 6 6 3 3 10 10 6 3 3 0 0 0 0 0 0 0 0 0 0 3 3 0 3 0 0 0 0 0 0 0 0 0 0 0
0 0 0 0 0 3 3 3 3 3 0 0 3 6 3 3 3 3 3 0 0 0 0 0 0 0 0 0 0 0 0 0 0 0 0 0 0 0 0 0 0 0 0 0
3 0 3 0 0 0 3 0 0 0 0 0 0 0 0 3 3 6 3 0 0 0 0 0 0 0 0 0 0 0 0 0 0 0 0 0 0 0 0 0 0 0 0 0
0 3 3 3 0 0 0 3 0 0 0 0 0 3 3 0 0 0 0 0 0 0 0 0 0 0 0 0 0 0 0 0 0 0 0 0 0 0 0 0 0 0 0 0

GEFSNGP_con_cape1000_228.txt.gz
Probability
0 0 0 0 0 3 0 0 0 0 6 6 10 16 13 10 26 32 23 26 26 26 29 35 39 39 42 39 42 52 48 52 48 52 45 45 42 42 39 42 42 32 35 32
0 0 0 0 0 3 0 0 6 10 13 13 16 23 23 26 35 35 35 32 26 32 39 35 39 42 42 42 39 45 45 52 48 42 39 39 35 32 32 35 35 32 29 29
0 0 0 0 0 3 6 6 3 10 13 19 23 19 26 29 32 32 29 29 29 32 26 32 39 42 42 42 39 42 45 39 42 42 39 35 35 32 35 32 32 29 26 29
0 0 0 0 6 6 6 10 6 10 16 13 16 10 10 19 23 26 23 19 23 26 29 32 35 35 32 35 39 39 42 35 35 35 32 35 35 29 26 29 26 26 26 32
0 0 0 0 6 3 10 10 13 13 10 13 16 13 13 19 26 23 19 19 26 29 26 32 32 29 35 32 35 35 39 35 35 39 35 35 32 29 32 35 32 29 29 26
0 0 3 3 3 6 10 10 6 13 6 6 13 10 10 16 23 26 23 19 19 19 19 26 26 23 29 29 32 29 29 29 29 32 32 35 32 29 26 26 29 29 29 26
0 3 3 0 10 6 6 13 10 13 3 6 6 6 13 19 19 19 23 16 19 19 19 19 23 23 26 29 32 29 29 29 26 26 26 19 16 19 19 26 19 23 19 13
0 0 0 3 10 6 6 6 10 13 10 6 6 6 16 19 16 16 19 23 19 19 19 26 23 23 23 32 32 29 23 23 19 16 19 16 16 16 16 13 16 13 16 10
0 0 0 3 3 6 3 10 10 13 10 6 6 10 13 10 16 13 13 19 23 23 23 23 23 16 23 29 23 23 16 16 16 16 13 13 13 16 13 13 13 10 6 6
3 3 3 3 3 3 3 3 3 6 3 6 6 6 10 10 10 16 16 13 19 19 23 23 23 23 23 13 16 13 16 16 13 13 13 13 13 13 10 10 6 6 6 6
3 3 3 6 3 3 3 3 3 3 3 6 6 6 10 10 10 16 19 19 16 16 16 19 19 26 13 16 13 13 10 10 10 10 10 6 6 6 6 6 6 6 6 6
3 3 3 0 0 3 3 0 0 0 0 0 0 3 6 6 6 16 19 19 19 13 16 19 16 16 16 16 13 13 6 6 6 6 6 3 3 3 3 0 0 0 3 3
0 0 0 0 0 0 0 0 0 0 0 0 0 0 3 6 6 13 13 13 10 13 13 6 13 13 13 13 10 10 6 3 3 0 3 3 3 3 3 0 0 0 0 0
0 0 0 0 0 0 0 0 0 0 0 0 0 0 0 3 6 6 6 3 3 3 3 3 10 13 10 6 6 6 3 3 0 0 0 0 0 0 0 0 0 0 0 0
0 0 0 0 0 0 0 0 0 0 0 0 0 0 0 3 6 6 3 3 3 3 3 3 6 6 3 3 6 6 3 0 0 0 0 0 0 0 0 0 0 0 0 0
0 0 0 0 0 0 0 0 0 0 0 0 0 0 6 3 3 3 3 3 3 3 3 3 3 6 6 6 3 0 0 0 0 0 0 0 0 0 0 0 0 0 0 0
0 0 0 0 0 0 0 0 0 0 0 0 3 0 3 3 3 3 3 3 3 3 3 3 3 3 6 3 0 0 0 0 0 0 0 0 0 0 0 0 0 0 0 0
0 0 0 0 0 0 0 0 0 0 0 0 0 0 3 3 3 3 3 3 3 3 3 3 3 3 6 3 3 0 0 0 0 0 0 0 0 0 0 0 0 0 0 0
0 0 0 0 0 0 0 0 0 0 0 0 3 3 3 3 3 3 3 3 3 3 0 0 0 3 6 3 3 0 0 0 0 0 0 0 0 0 0 0 0 0 0 0
0 0 0 0 0 0 0 0 0 0 0 0 0 3 3 3 3 3 3 0 0 0 0 0 0 0 3 3 3 0 0 0 0 0 0 0 0 0 0 0 0 0 0 0
0 0 0 0 0 0 0 0 0 0 0 0 0 0 0 0 3 3 3 0 0 0 0 0 0 0 3 3 0 0 0 0 0 0 0 0 0 0 0 0 0 0 0 0
0 0 0 0 0 0 0 0 0 0 0 0 0 0 0 0 0 0 0 0 0 0 0 0 0 0 3 3 3 0 0 0 0 0 0 0 0 0 0 0 0 0 0 0
0 0 0 0 0 0 0 0 0 0 0 0 0 0 0 0 0 0 0 0 0 0 0 0 0 0 0 0 0 0 0 0 0 0 0 0 0 0 0 0 0 0 0 0
0 0 0 0 0 0 0 0 0 0 0 0 0 0 0 0 0 0 0 0 0 0 0 0 0 0 0 0 0 0 0 0 0 0 0 0 0 0 0 0 0 0 0 0
0 0 0 0 0 0 0 0 0 0 0 0 0 0 0 0 0 0 0 0 0 0 0 0 0 0 0 0 0 0 0 0 0 0 0 0 0 0 0 0 0 0 0 0
0 0 0 0 0 0 0 0 0 0 0 0 0 0 0 0 0 0 0 0 0 0 0 0 0 0 0 0 0 0 0 0 0 0 0 0 0 0 0 0 0 0 0 0
0 0 0 0 0 0 0 0 0 0 0 0 0 0 0 0 0 0 0 0 0 0 0 0 0 0 0 0 0 0 0 0 0 0 0 0 0 0 0 0 0 0 0 0

GEFSNGP_con_cape1000_234.txt.gz
Probability
0 0 0 0 0 0 0 0 0 0 3 3 10 13 10 19 23 19 16 19 19 16 19 26 23 26 29 29 19 29 32 32 32 29 26 26 29 32 32 29 23 23 26 29
0 0 0 0 0 0 0 0 0 3 6 6 10 16 16 23 19 19 19 19 16 23 26 26 29 32 35 32 26 23 23 29 29 26 23 23 23 23 23 29 26 26 23 23
0 0 0 0 0 0 0 0 0 3 6 10 16 19 16 19 19 19 16 19 23 19 19 23 32 35 35 35 32 26 23 26 26 26 23 23 23 23 23 26 26 29 26 26
0 0 0 0 3 3 3 3 0 6 6 10 16 19 16 19 13 16 13 13 16 16 13 16 19 26 26 29 32 26 26 23 23 23 23 29 26 26 29 32 29 29 26 26
0 0 0 3 3 3 3 3 6 13 10 3 3 6 6 6 6 13 13 10 16 16 13 13 13 19 19 19 19 23 26 23 23 26 26 23 23 23 23 26 23 19 19 26
0 0 0 3 3 3 3 3 3 10 6 3 0 6 3 0 0 10 10 10 10 10 10 16 13 13 16 16 16 16 19 23 19 23 26 26 19 19 19 19 16 23 19 16
0 0 0 0 0 0 3 3 0 3 0 0 0 0 3 3 0 6 10 13 10 10 10 6 13 16 16 16 16 16 19 19 19 16 16 23 23 19 19 16 13 16 16 13
0 0 0 0 3 0 0 3 6 3 3 3 3 3 6 6 6 10 13 10 10 13 16 13 13 19 16 16 16 10 13 16 13 16 16 16 16 16 13 13 16 16 13 16
0 0 0 3 3 3 3 6 6 6 6 3 3 6 6 6 3 6 10 13 3 6 13 16 10 13 13 16 13 10 10 13 13 13 16 16 16 13 13 13 16 16 13 13
3 3 3 3 0 0 3 3 3 3 6 3 3 6 6 6 3 3 10 13 10 10 10 13 10 10 13 10 10 6 13 10 10 10 16 16 16 13 13 13 16 16 10 10
3 3 3 0 0 0 0 0 3 3 3 6 6 3 6 6 3 3 6 6 13 10 10 10 13 13 10 13 10 10 10 6 6 6 6 6 6 6 13 10 10 6 6 10
3 0 0 0 0 0 0 0 0 0 0 0 0 0 0 3 3 3 3 6 10 6 10 10 10 10 10 10 13 10 6 6 6 6 3 6 3 0 0 0 0 0 3 3
0 0 0 0 0 0 0 0 0 0 0 0 0 0 0 0 0 3 3 6 10 6 6 3 6 6 10 10 10 10 10 6 3 3 0 0 3 3 0 0 0 0 0 0
0 0 0 0 0 0 0 0 0 0 0 0 0 0 0 0 0 3 3 3 3 6 3 3 3 3 3 6 10 6 3 3 0 0 0 0 3 0 0 0 0 0 0 0
0 0 0 0 0 0 0 0 0 0 0 0 0 0 0 0 0 0 3 3 3 3 0 0 0 0 0 3 3 3 3 3 0 0 0 0 0 0 0 0 0 0 0 0
0 0 0 0 0 0 0 0 0 0 0 0 0 0 3 3 0 0 3 3 3 3 3 3 0 0 3 3 3 3 3 3 0 0 0 0 0 0 0 0 0 0 0 0
0 0 0 0 0 0 0 0 0 0 0 0 0 0 0 3 3 3 3 3 3 3 3 3 3 3 3 3 3 6 3 3 0 0 0 0 0 0 0 0 0 0 0 0
0 0 0 0 0 0 0 0 0 0 0 0 0 0 0 0 0 0 0 0 3 3 0 3 3 3 3 3 3 3 3 3 0 0 0 0 0 0 0 0 0 0 0 0
0 0 0 0 0 0 0 0 0 0 0 0 0 0 0 0 0 0 0 0 3 3 0 0 0 3 3 3 0 0 0 0 0 0 0 0 0 0 0 0 0 0 0 0
0 0 0 0 0 0 0 0 0 0 0 0 0 0 0 0 0 0 0 0 0 0 0 0 0 0 0 0 0 0 0 0 0 0 0 0 0 0 0 0 0 0 0 0
0 0 0 0 0 0 0 0 0 0 0 0 0 0 0 0 0 0 0 0 0 0 0 0 0 0 0 0 0 0 0 0 0 0 0 0 0 0 0 0 0 0 0 0
0 0 0 0 0 0 0 0 0 0 0 0 0 0 0 0 0 0 0 0 0 0 0 0 0 0 0 0 0 0 0 0 0 0 0 0 0 0 0 0 0 0 0 0
0 0 0 0 0 0 0 0 0 0 0 0 0 0 0 0 0 0 0 0 0 0 0 0 0 0 0 0 0 0 0 0 0 0 0 0 0 0 0 0 0 0 0 0
0 0 0 0 0 0 0 0 0 0 0 0 0 0 0 0 0 0 0 0 0 0 0 0 0 0 0 0 0 0 0 0 0 0 0 0 0 0 0 0 0 0 0 0
0 0 0 0 0 0 0 0 0 0 0 0 0 0 0 0 0 0 0 0 0 0 0 0 0 0 0 0 0 0 0 0 0 0 3 0 0 0 0 0 0 0 0 0
0 0 0 0 0 0 0 0 0 0 0 0 0 0 0 0 0 0 0 0 0 0 0 0 0 0 0 0 0 0 0 0 0 0 0 0 0 0 0 0 0 0 0 0
0 0 0 0 0 0 0 0 0 0 0 0 0 0 0 0 0 0 0 0 0 0 0 0 0 0 0 0 0 0 0 0 0 0 0 0 0 0 0 0 0 0 0 0

GEFSNGP_con_cape1000_240.txt.gz
Probability
0 0 0 0 0 0 0 0 0 3 6 3 13 23 32 39 39 42 48 55 58 61 61 61 61 61 61 65 65 58 61 61 61 61 55 55 55 55 58 55 45 48 52 55
0 0 0 0 0 0 0 3 0 3 6 6 16 23 32 39 39 39 42 52 55 52 55 55 58 61 55 61 65 68 65 61 55 55 55 55 52 48 52 45 52 52 52 45
0 0 0 0 0 0 0 3 3 3 3 13 16 19 39 39 35 32 32 42 45 42 45 52 61 58 55 65 61 61 61 61 58 61 52 52 45 45 48 45 42 45 45 45
0 0 0 3 0 0 0 0 0 0 3 13 13 32 32 39 39 39 39 32 35 35 39 42 45 52 55 55 65 65 61 58 58 55 52 52 48 52 48 45 42 45 45 45
0 0 0 0 0 0 0 3 3 6 6 10 19 26 26 29 39 35 35 35 35 26 39 39 42 48 48 52 52 52 52 45 42 48 45 45 48 48 48 45 45 45 42 45
0 0 0 0 0 0 0 3 6 3 6 19 19 19 26 29 32 32 32 29 26 32 39 39 45 45 52 48 48 45 39 39 35 29 32 32 39 39 39 39 42 39 39 42
0 0 0 0 0 0 0 0 10 13 16 19 23 23 26 29 29 26 29 26 23 29 29 35 42 39 42 39 39 32 29 29 29 29 32 32 32 35 35 32 35 32 32 32
0 0 0 0 0 0 6 13 13 19 19 26 26 26 29 29 19 19 26 29 26 26 29 26 32 35 39 39 32 26 29 29 29 29 26 29 32 29 26 26 26 23 23 23
0 0 6 6 6 6 13 13 16 19 23 26 23 29 29 23 19 19 19 16 13 16 19 23 23 29 32 26 29 26 26 26 23 23 23 26 26 26 26 26 23 19 16 16
3 3 6 6 6 6 3 13 13 16 29 29 26 23 19 13 19 19 16 19 13 16 16 19 19 19 19 19 26 29 26 23 23 23 19 23 29 23 23 23 23 13 13 13
3 6 6 6 3 3 6 6 10 16 19 19 16 19 13 13 13 19 16 13 19 23 16 16 19 23 13 16 19 26 23 23 19 19 19 19 19 16 16 19 13 13 13 13
6 10 10 10 10 6 6 6 10 13 16 16 19 16 16 16 16 16 16 16 19 19 19 19 13 13 19 19 19 26 26 19 16 16 16 13 10 10 0 3 3 6 10 10
6 6 6 6 6 6 10 10 10 10 16 16 13 10 10 16 16 13 16 16 19 19 16 16 13 16 16 16 16 23 19 19 19 13 13 10 10 10 6 0 0 0 0 0
6 6 3 3 3 3 6 6 6 6 6 10 6 6 10 10 13 13 13 10 16 19 13 13 13 13 13 19 19 16 16 13 10 13 10 10 10 10 6 6 6 6 0 0
6 3 3 3 0 0 0 0 3 3 3 0 0 0 0 3 6 6 6 10 10 6 13 13 16 13 13 13 19 16 13 10 10 10 6 10 6 6 6 6 6 6 0 0
3 3 3 0 0 0 3 3 3 0 0 0 0 0 0 0 3 3 3 3 6 6 10 10 10 10 10 6 19 19 19 6 6 6 3 6 6 3 3 0 0 3 0 0
3 0 0 0 0 0 0 0 0 0 0 0 0 0 0 0 0 0 0 6 6 6 6 6 10 6 6 6 10 10 6 3 3 3 3 3 3 3 3 0 0 0 0 0
3 3 0 0 0 0 0 0 0 0 0 0 0 0 0 0 0 0 0 3 6 6 10 6 6 6 6 10 10 10 6 3 3 3 3 3 3 3 6 3 0 0 0 0
3 0 0 0 0 0 0 0 0 0 0 0 0 0 0 3 3 3 6 3 3 6 6 6 0 6 10 10 3 6 3 3 3 3 3 3 3 3 3 3 3 0 0 0
0 0 0 0 0 0 0 0 0 0 0 0 0 0 0 0 0 0 0 0 6 6 6 3 6 10 6 3 3 3 3 3 3 3 3 3 3 3 3 0 0 0 0 0
0 0 0 0 0 0 0 0 0 0 0 0 0 0 0 0 0 0 0 3 3 3 3 0 3 6 3 3 0 3 3 3 3 0 0 0 0 0 0 3 0 0 0 0
0 0 0 0 0 0 0 0 0 0 0 0 0 0 0 0 0 0 0 0 6 3 3 3 3 0 3 0 3 0 0 0 0 0 0 0 0 0 0 0 0 0 0 0
0 0 0 0 0 0 0 0 0 0 3 0 0 0 0 0 0 0 0 0 0 0 3 3 0 0 0 0 0 0 0 0 0 0 0 0 0 0 0 0 0 0 0 0
0 0 0 0 0 0 0 0 0 3 3 3 3 0 0 0 0 0 0 0 0 0 3 0 0 0 0 0 0 0 0 0 0 0 0 0 0 0 0 0 0 0 0 0
0 0 0 0 0 0 0 0 3 3 3 3 0 0 0 0 0 0 0 0 0 0 3 0 0 0 0 0 0 0 0 0 0 0 0 0 0 0 0 0 0 0 0 3
0 0 3 0 0 0 0 0 0 3 3 3 0 0 0 0 0 0 6 3 3 3 3 3 0 0 0 0 0 0 0 0 0 0 0 0 0 0 0 0 0 0 0 0
0 0 0 0 0 0 0 0 3 3 3 3 3 3 3 3 0 0 3 3 3 3 3 6 6 3 0 0 0 0 0 0 0 0 0 0 0 0 0 0 0 0 0 3

GEFSNGP_con_cape1000_246.txt.gz
Probability
0 0 0 0 0 0 0 0 3 3 3 13 19 13 23 32 39 42 48 52 55 55 58 61 68 71 71 68 68 68 74 71 71 71 71 71 71 65 61 65 58 65 61 61
0 0 0 0 0 0 0 0 6 3 0 6 10 19 32 39 35 35 39 48 48 52 55 55 65 61 58 68 68 71 71 71 71 71 71 68 65 61 61 68 65 61 61 48
0 0 0 0 0 0 0 0 3 3 3 10 10 23 29 45 35 42 42 45 48 52 48 52 55 61 58 55 58 61 65 65 65 71 71 65 58 58 61 65 58 52 52 45
0 0 0 0 0 0 0 0 3 3 6 10 10 19 29 29 42 39 39 39 42 42 42 45 42 48 48 48 55 55 58 58 55 58 61 61 68 68 61 58 55 48 45 42
0 0 0 0 0 0 0 3 0 6 10 10 10 16 23 29 32 35 35 39 35 32 35 35 42 42 42 45 45 45 52 55 55 58 58 58 58 61 52 45 52 48 48 48
0 0 0 0 0 0 0 3 0 3 6 10 6 10 19 35 32 35 32 29 29 26 32 35 35 35 39 39 39 39 45 48 48 55 58 58 52 55 48 52 42 39 42 42
0 0 0 0 0 0 0 3 3 3 10 16 29 26 26 35 32 29 29 23 26 29 29 35 39 42 39 39 42 42 42 42 45 48 45 42 39 39 45 42 39 39 39 35
0 0 0 0 3 3 6 13 6 10 16 16 26 23 26 29 29 26 26 23 26 26 29 32 29 35 45 39 45 45 42 42 39 42 32 29 42 45 42 45 39 45 39 32
3 6 3 3 3 3 6 6 6 6 10 19 23 19 26 29 26 29 23 19 23 26 26 26 32 39 39 45 35 42 39 39 39 39 35 39 42 39 39 45 32 29 26 29
3 3 3 6 3 3 6 6 6 6 10 13 16 19 23 23 23 16 19 23 26 23 29 32 29 32 35 35 32 39 39 39 39 42 32 42 39 26 29 29 35 32 26 23
3 3 3 6 3 6 6 6 6 6 6 19 19 26 26 23 23 16 19 23 26 26 29 35 32 35 32 32 35 35 35 39 35 29 32 42 35 29 26 26 19 29 19 26
3 3 10 6 6 6 10 10 6 6 3 10 10 16 16 16 19 23 19 26 26 26 26 26 26 29 29 32 35 39 32 29 16 19 35 29 23 16 0 3 3 6 6 3
6 6 6 6 6 6 6 3 3 6 6 10 16 13 13 13 13 13 13 16 19 19 26 26 26 26 35 35 39 39 35 29 16 13 26 19 19 16 19 0 0 0 0 0
6 3 3 6 6 6 3 3 6 6 10 6 10 13 13 13 13 19 23 19 19 23 23 23 23 26 29 35 42 42 35 16 16 19 19 19 13 16 16 6 10 0 0 0
3 3 3 6 6 6 3 3 3 3 6 6 13 13 13 13 13 13 16 13 13 10 23 23 23 23 32 35 35 35 26 19 19 16 16 16 16 10 6 6 6 6 6 0
3 3 3 6 10 6 6 6 6 6 6 6 6 10 10 13 16 16 16 16 13 10 13 23 23 26 26 26 29 29 35 13 13 13 6 6 10 3 3 0 0 3 3 0
3 6 6 6 6 6 3 3 3 6 6 0 6 6 6 10 13 16 16 10 19 19 19 16 19 23 23 23 23 23 13 10 3 6 0 3 0 3 3 0 0 0 3 0
3 6 6 6 6 6 3 3 0 0 0 0 6 6 3 6 10 6 6 10 13 16 16 13 10 13 16 19 19 10 3 3 3 3 0 0 0 0 3 3 0 3 3 0
6 6 6 6 6 3 3 3 3 3 3 3 6 6 3 10 16 6 10 6 13 16 19 13 3 6 16 10 6 13 6 3 3 3 3 0 0 0 0 6 6 3 3 3
6 6 6 6 3 3 6 6 6 6 6 6 3 3 3 6 13 6 10 13 10 10 10 10 3 10 10 13 3 3 3 3 3 3 3 3 3 3 3 6 6 6 3 0
3 3 3 0 0 0 0 0 0 0 0 0 3 6 6 13 10 10 13 3 13 10 6 0 3 3 6 3 3 3 3 3 3 3 3 3 3 3 3 0 0 0 0 3
3 3 3 0 0 0 0 0 3 3 0 0 3 3 6 13 3 6 16 16 3 0 0 0 3 3 3 3 3 3 3 3 3 3 3 0 0 0 0 0 0 0 0 3
3 3 0 0 0 0 0 0 0 0 0 0 0 0 6 13 0 0 0 6 3 0 0 0 0 0 0 0 3 3 0 0 0 0 0 0 0 0 0 0 0 0 0 0
3 3 0 3 3 0 0 0 0 0 0 6 0 0 3 6 6 6 6 0 0 0 0 0 0 0 0 0 3 0 3 0 0 0 0 0 0 0 0 0 0 0 0 0
3 0 0 0 0 3 0 0 0 0 0 0 0 0 0 0 0 3 10 3 0 0 0 0 0 0 0 3 3 0 0 0 0 0 0 0 0 0 0 0 0 0 0 0
0 3 6 3 6 10 0 0 0 0 0 0 0 0 0 0 0 10 10 3 0 0 3 0 0 0 3 3 0 0 0 0 0 0 0 0 0 0 3 0 0 0 0 0
0 6 13 3 3 0 0 0 0 0 0 0 0 0 0 0 0 0 3 3 3 3 3 3 3 3 3 3 0 0 0 0 0 0 0 0 3 3 0 0 0 0 0 0